Regional Weather Roundup
Issued by NWS Green Bay, WI

Home | Current Version | Previous Version | Text Only | Print | Product List | Glossary On
Versions: 1 2 3 4 5 6 7 8 9 10 11 12 13 14 15 16 17 18 19 20 21 22 23 24 25 26 27 28 29 30 31 32 33 34 35 36 37 38 39 40 41 42 43 44 45 46 47 48 49 50
000
ASUS43 KGRB 212211
RWRGRB

NORTH-CENTRAL AND NORTHEAST WISCONSIN REGIONAL WEATHER ROUNDUP
NATIONAL WEATHER SERVICE GREEN BAY WI
500 PM CDT SAT APR 21 2018

WIZ005-009-010>012-018-019-212300-
NORTH CENTRAL WISCONSIN

CITY           SKY/WX    TMP DP  RH WIND       PRES   REMARKS
IRONWOOD       FAIR      55  16  21 NW9       30.34S
MANITOWISH WTR FAIR      54  12  18 S3        30.32F
ARBOR VITAE    FAIR      57   6  13 S6        30.32F
EAGLE RIVER    FAIR      55   5  13 SW3       30.32S
LAND O LAKES   FAIR      57   7  14 CALM      30.33S
RHINELANDER    FAIR      55  18  23 VRB6      30.33F
PHILLIPS       FAIR      55  13  19 SW6       30.33S
ANTIGO         FAIR      53  26  34 NE3       30.35S
TOMAHAWK       FAIR      55  14  19 CALM      30.34F
MERRILL          N/A     55  28  35 SW9       30.36S
$$

WIZ013-073-212300-
NORTHEAST WISCONSIN

CITY           SKY/WX    TMP DP  RH WIND       PRES   REMARKS
IRON MOUNTAIN  FAIR      63  13  14 CALM      30.30S
MARINETTE      FAIR      57  22  25 S9        30.36S
OCONTO         FAIR      56  21  25 S7        30.35F
$$

WIZ017-030-035>037-045-212300-
CENTRAL WISCONSIN

CITY           SKY/WX    TMP DP  RH WIND       PRES   REMARKS
MEDFORD        FAIR      52  26  35 CALM      30.35S
WAUSAU         FAIR      55  27  34 W10       30.34S
MOSINEE        MOSUNNY   54  25  32 W6        30.37S
MARSHFIELD     FAIR      58  25  28 CALM      30.34S
WISC RAPIDS    FAIR      54  26  34 S12       30.36S
STEVENS POINT  FAIR      54  24  30 CALM      30.36S
WAUPACA        FAIR      59  20  22 SE3       30.37S
SHAWANO        FAIR      59  21  22 SW7       30.35F
CLINTONVILLE   FAIR      54  18  24 S9        30.36S
WAUTOMA        FAIR      57  25  29 CALM      30.36F
$$

WIZ038-039-048-051-212300-
FOX VALLEY

CITY           SKY/WX    TMP DP  RH WIND       PRES   REMARKS
NWS GREEN BAY  FAIR      50  22  33 S9        30.38F
APPLETON       MOSUNNY   55  18  22 SE6       30.36F
OSHKOSH        FAIR      52  31  44 SE7       30.37F
FOND DU LAC    FAIR      52  27  38 S5        30.37F
$$

WIZ022-050-052-212300-
EAST CENTRAL WISCONSIN

CITY           SKY/WX    TMP DP  RH WIND       PRES   REMARKS
EPHRAIM        FAIR      55  11  17 SW5       30.36S
WASHINGTON ISL MOCLDY    46  28  49 S7        30.36S
STURGEON BAY   FAIR      54  20  26 S7        30.38S
MANITOWOC      FAIR      49  28  44 SE7       30.40S
SHEBOYGAN      FAIR      57  18  21 VRB3      30.38S
$$

LMZ563-521-522-541>543-212300-
LAKESHORE

STATION/POSITION TIME  TEMP    WIND        PRES    VSBY  WAVE
                       AIR SEA DIR/SP/G                  HT/PER
                 (UTC) (F)     (DEG/KT/KT) (MB)    (MI)  (FT/S)
SHEBOYGAN LKSHOR 2200   43     170/ 14/ 14 1029.1F
KEWAUNEE LKSHORE 2142   40     170/  9/ 10 1028.2F
NORTHPORT PIER   2140   51                 1027.8F
SISTER BAY LKSHO 2112   59     230/  6/  6   N/A
MENOMINEE LKSHOR 2142   50     170/ 10/ 13 1027.5F
$$




USA.gov is the U.S. government's official web portal to all federal, state and local government web resources and services.